GFSFLT1_con_mlcape_171.txt.gz
CAPE
842 347 138 410 804 838 830 606 228 119 157 64 53 10 0 0 3 1 4 3 16 17 29 2 0 0 1 3 0 10 19 15 7
675 689 378 49 597 762 838 754 282 99 128 120 17 0 0 0 4 1 1 3 0 0 0 13 12 11 1 11 10 5 4 0 3
599 676 639 313 190 663 823 890 495 131 107 209 109 16 0 0 0 2 0 0 0 0 0 23 5 3 4 16 11 10 10 9 3
555 577 659 576 367 213 404 718 731 292 101 168 173 83 0 0 0 2 0 0 0 0 0 14 16 12 12 2 20 6 3 1 2
559 551 642 651 560 393 230 236 435 581 234 61 123 98 0 0 0 1 0 0 0 43 1 0 0 13 16 7 10 1 2 2 2
0 355 571 588 650 611 472 289 211 289 410 221 26 68 19 2 0 0 2 0 0 14 51 17 3 4 12 14 3 4 1 3 5
0 0 0 90 492 615 678 622 387 169 256 505 183 39 3 8 8 2 0 0 0 0 13 18 10 8 3 9 5 0 1 9 9
0 0 0 0 86 683 767 914 777 580 410 300 514 265 98 45 9 7 0 0 0 0 0 8 0 0 0 0 4 4 6 10 7
0 0 0 0 0 0 380 968 943 757 673 479 345 384 254 93 74 13 0 0 0 0 0 2 17 0 0 1 3 8 6 4 4
0 0 0 0 0 0 0 0 232 645 618 566 503 439 249 227 70 121 0 0 0 0 0 0 19 42 14 2 0 4 5 8 4
0 0 0 0 0 0 0 0 0 5 346 571 630 477 457 358 285 131 31 0 0 0 0 0 8 81 171 32 4 0 1 6 8
0 0 0 0 0 0 0 0 0 0 0 16 334 383 449 520 523 381 156 7 0 0 0 0 50 136 254 153 87 0 0 1 3
0 0 0 0 0 0 0 0 0 0 0 0 9 13 208 324 359 405 473 351 141 0 0 0 4 107 207 209 266 69 0 0 0
0 0 0 0 0 0 0 0 0 0 0 0 0 3 19 77 193 268 317 322 309 247 7 0 0 0 78 189 194 334 89 13 0
0 0 0 0 0 0 0 0 0 0 0 0 0 0 0 0 1 75 161 233 244 271 224 0 0 0 0 23 233 313 342 139 102
0 0 0 0 0 0 0 0 0 0 0 0 0 0 0 0 0 0 6 17 87 109 290 193 1 0 0 0 0 100 305 280 208
0 0 0 0 3 2 1 0 0 0 0 0 0 0 0 0 0 0 0 0 24 144 325 306 91 44 2 0 0 0 19 207 282
0 0 0 0 2 2 1 4 2 0 0 0 1 1 0 0 0 0 1 0 0 0 49 282 211 125 75 3 0 0 0 0 103
0 0 0 0 1 1 1 4 5 10 8 5 0 3 1 0 0 0 0 0 1 49 102 93 89 89 167 155 40 0 0 0 0
0 0 1 0 0 0 1 0 5 9 11 9 9 12 6 4 5 9 3 0 0 0 77 62 57 69 68 58 89 36 4 2 27

GFSFLT1_con_mlcape_174.txt.gz
CAPE
1098 763 242 196 415 859 818 658 409 148 124 119 129 40 0 0 0 0 0 0 48 58 25 0 0 0 1 0 2 20 18 12 6
662 661 690 356 71 613 787 884 576 251 98 199 85 33 0 0 0 0 0 0 0 0 10 6 1 0 0 4 3 2 2 3 5
570 522 698 652 335 271 460 767 808 388 158 176 144 21 0 0 0 0 0 0 0 0 0 0 1 4 1 1 4 8 3 11 4
534 515 532 658 592 429 238 327 407 615 305 168 217 121 20 0 0 0 0 0 0 0 0 37 7 0 0 1 20 7 8 3 1
583 578 483 553 643 545 397 270 269 365 470 260 144 200 144 1 0 0 0 0 0 0 0 0 11 0 0 0 3 7 1 3 3
0 3 345 564 615 671 632 475 349 271 327 358 222 85 88 21 0 0 0 0 0 0 45 2 0 0 0 3 3 2 1 2 1
0 0 0 0 1 345 616 749 578 373 269 283 281 204 44 4 0 0 0 0 0 0 0 135 28 0 0 0 3 2 1 2 1
0 0 0 0 0 6 167 506 553 562 346 205 294 300 133 5 0 0 0 2 0 0 0 50 114 16 0 0 0 3 3 1 3
0 0 0 0 0 0 14 107 469 649 611 459 325 378 274 155 73 14 7 5 0 0 0 0 126 63 0 1 0 0 2 1 4
0 0 0 0 0 0 0 0 11 73 355 510 474 404 376 391 215 91 32 3 1 0 3 1 3 55 42 5 2 0 0 1 2
0 0 0 0 0 0 0 0 0 0 7 13 212 395 408 372 317 234 115 18 0 0 0 8 27 33 70 119 82 17 4 0 0
0 0 0 0 0 0 0 0 0 0 0 0 2 176 292 289 332 371 337 49 0 0 1 0 33 211 196 232 237 136 15 9 0
0 0 0 0 0 0 0 0 0 0 0 0 0 0 14 48 236 306 311 298 116 4 0 0 2 48 248 228 235 319 246 47 0
0 0 0 0 0 0 0 0 0 0 0 0 0 0 0 0 33 100 261 334 310 236 28 4 1 7 50 174 239 421 492 295 36
0 0 0 0 0 0 0 0 0 0 0 0 0 0 0 0 0 4 25 63 142 174 237 75 0 4 0 24 120 381 453 517 296
0 0 0 0 0 0 0 0 0 0 0 0 0 0 0 0 0 0 0 0 3 66 91 68 37 0 0 0 14 105 530 450 526
0 0 0 0 0 0 0 0 0 0 0 0 0 0 0 0 0 0 0 0 0 0 38 41 127 112 1 0 0 1 44 307 445
0 0 0 0 0 0 0 1 4 2 0 0 0 4 0 0 0 0 0 0 0 0 0 13 65 109 200 116 0 0 8 28 137
0 0 0 0 0 0 0 3 1 5 7 3 0 2 4 3 1 0 0 0 0 0 0 0 20 43 56 66 68 79 30 26 39
0 0 0 0 0 0 0 0 1 0 0 0 0 0 3 3 5 6 0 0 0 0 0 0 0 0 0 15 41 80 65 95 154

GFSFLT1_con_mlcape_177.txt.gz
CAPE
975 934 679 197 129 465 809 761 492 303 121 93 172 80 0 0 0 0 0 0 0 9 11 0 0 12 0 0 8 13 19 13 5
558 549 722 638 353 144 671 861 723 494 215 142 131 124 0 0 0 0 0 0 31 111 14 0 0 0 0 0 0 1 1 1 5
604 535 528 684 659 383 333 606 878 704 411 192 190 87 0 0 0 0 0 0 10 0 15 0 0 0 0 0 0 1 4 2 4
581 642 593 492 513 561 456 329 475 720 610 374 197 119 8 0 0 0 0 0 0 0 0 0 13 0 0 0 0 0 7 8 3
0 493 653 550 510 604 608 497 338 445 480 489 304 176 88 14 0 0 0 0 4 1 0 0 39 5 0 0 0 13 5 0 2
0 0 0 84 216 498 660 727 557 417 407 491 413 263 182 100 19 0 0 0 1 5 2 0 17 17 0 0 0 0 3 3 1
0 0 0 0 0 0 2 313 586 593 426 307 336 353 221 100 50 0 0 0 0 52 10 18 1 0 0 0 2 0 3 0 0
0 0 0 0 0 0 0 18 108 417 473 412 314 257 205 157 75 13 0 4 64 140 72 0 37 148 7 0 0 0 3 3 0
0 0 0 0 0 0 0 0 0 140 198 287 217 232 246 202 118 58 26 13 87 223 226 18 2 39 133 11 2 0 0 2 2
0 0 0 0 0 0 0 0 0 0 0 0 118 177 217 279 188 158 105 40 107 217 206 102 58 98 212 161 58 6 0 0 0
0 0 0 0 0 0 0 0 0 0 0 0 0 1 57 167 292 251 213 101 141 221 251 144 233 234 148 216 207 102 32 4 0
0 0 0 0 0 0 0 0 0 0 0 0 0 0 0 0 14 131 174 193 100 173 303 220 300 241 309 260 330 308 260 138 60
0 0 0 0 0 0 0 0 0 0 0 0 0 0 0 0 0 0 64 150 169 98 134 234 214 224 251 371 359 405 462 398 257
0 0 0 0 0 0 0 0 0 0 0 0 0 0 0 0 0 0 0 6 47 67 72 68 65 130 237 343 458 458 464 483 482
0 0 0 0 0 0 0 0 0 0 0 0 0 0 0 0 0 0 0 0 0 2 73 56 11 8 71 211 259 453 483 347 503
0 0 0 0 0 0 0 0 0 0 0 0 0 0 0 0 0 0 0 0 0 0 0 0 40 40 0 32 76 252 395 465 363
0 0 0 0 0 0 0 0 0 0 0 0 0 0 0 0 0 0 0 0 0 0 0 0 0 31 31 24 20 85 259 376 544
0 0 0 0 0 0 0 0 0 0 1 1 5 4 2 0 0 0 0 0 0 0 0 0 0 0 5 22 16 32 49 182 239
0 0 0 0 0 0 0 0 0 0 1 2 1 1 6 10 2 0 0 0 0 0 0 0 0 0 0 0 4 23 18 32 20
0 0 0 0 0 0 0 0 0 0 1 0 0 0 0 0 1 0 0 0 0 0 0 0 0 0 0 0 0 0 0 0 10

GFSFLT1_con_mlcape_180.txt.gz
CAPE
946 934 973 556 198 109 627 923 595 433 280 114 151 66 0 0 0 0 0 0 1 8 0 0 51 11 0 0 0 4 20 17 14
558 556 613 596 592 339 237 829 833 646 442 254 156 150 4 0 0 0 0 0 30 56 74 0 4 34 0 0 0 17 12 7 10
681 635 607 510 543 591 449 421 747 892 656 416 262 158 60 0 0 0 0 0 86 86 111 0 0 0 0 0 0 0 0 3 8
9 376 702 726 484 567 590 468 373 502 683 614 396 249 126 0 0 0 0 0 1 60 64 52 7 5 0 0 0 0 2 1 5
0 0 240 489 664 603 568 581 513 410 397 421 445 359 209 54 0 0 0 0 0 43 21 2 0 8 14 0 0 0 6 8 2
0 0 0 0 0 0 0 0 426 546 447 379 440 441 318 154 76 19 0 0 0 5 136 0 0 1 55 0 0 9 20 2 1
0 0 0 0 0 0 0 0 1 143 437 437 386 380 339 245 183 93 43 25 51 32 197 131 1 19 123 0 1 0 0 6 6
0 0 0 0 0 0 0 0 0 0 155 298 324 327 311 240 195 173 123 101 129 204 186 291 112 20 22 19 0 4 0 0 3
0 0 0 0 0 0 0 0 0 0 0 0 5 124 204 273 225 186 173 197 247 283 351 408 349 70 38 69 72 35 7 3 4
0 0 0 0 0 0 0 0 0 0 0 0 0 0 0 120 174 142 121 112 146 297 300 475 670 294 78 62 173 131 47 0 0
0 0 0 0 0 0 0 0 0 0 0 0 0 0 0 0 0 37 97 129 161 181 221 409 533 579 506 410 331 323 199 56 2
0 0 0 0 0 0 0 0 0 0 0 0 0 0 0 0 0 0 0 2 43 127 232 371 411 534 469 535 621 534 354 333 171
0 0 0 0 0 0 0 0 0 0 0 0 0 0 0 0 0 0 0 0 0 0 45 153 215 395 396 445 571 548 431 296 314
0 0 0 0 0 0 0 0 0 0 0 0 0 0 0 0 0 0 0 0 0 0 0 0 32 47 174 443 544 647 571 453 449
0 0 0 0 0 0 0 0 0 0 0 0 0 0 0 0 0 0 0 0 0 0 0 0 0 0 8 16 65 330 502 541 498
0 0 0 0 0 0 0 0 0 0 0 0 0 0 0 0 0 0 0 0 0 0 0 0 0 0 0 0 0 17 0 176 67
0 0 0 0 0 0 0 0 0 0 0 0 0 0 0 0 0 0 0 0 0 0 0 0 0 0 0 0 0 0 0 0 108
0 0 0 0 0 0 0 0 0 0 0 0 3 1 1 0 0 0 0 0 0 0 0 0 0 0 0 0 0 0 0 0 3
0 0 0 0 0 0 0 0 0 0 0 0 2 0 0 5 0 0 0 0 0 0 0 0 0 0 0 0 0 0 0 0 2
0 0 0 0 0 0 0 0 0 0 0 1 0 0 0 0 0 0 0 0 0 0 0 0 0 0 0 0 0 0 0 0 0